weather.gov     
National Weather Service

Regional Weather Roundup
NWS Homepage
This page is being discontinued on March 12, 2014.
The same data is available at this site. Please update your bookmarks.
Thank you, and we apologize for the inconvenience.
Please send an email to SR-SRH.Webmaster@noaa.gov with any concerns.


Current Version
Previous Version:    01  02  03  04  05  06  07  08  09  10  11  12  13  14  15  16  17  18  19  20  21  22  23  24  25  26  27  28  29  30  
   31  32  33  34  35  36  37  38  39  40  41  42  43  44  45  46  47  48  49  50  51  52  53  54  
[Printable]
913
ASUS43 KGRB 241910
RWRGRB

NORTH-CENTRAL AND NORTHEAST WISCONSIN REGIONAL WEATHER ROUNDUP
NATIONAL WEATHER SERVICE GREEN BAY WI
200 PM CDT FRI OCT 24 2014

WIZ005-009-010>012-018-019-242000-
NORTH CENTRAL WISCONSIN

CITY           SKY/WX    TMP DP  RH WIND       PRES   REMARKS
IRONWOOD       SUNNY     64  45  48 SW12G24   29.79F
MANITOWISH WTR SUNNY     58  49  72 S9        29.87F
ARBOR VITAE    SUNNY     58  50  72 S7        29.88F
EAGLE RIVER    SUNNY     59  45  60 SW8       29.88F
LAND O LAKES   SUNNY     61  45  54 SW8       29.88F
RHINELANDER    SUNNY     57  47  69 VRB7      29.90F
PHILLIPS       SUNNY     62  47  59 S10       29.87F
ANTIGO         MOSUNNY   52  50  93 SW7       29.92F
TOMAHAWK       SUNNY     56  47  74 S7        29.90F
MERRILL        CLOUDY    52  48  87 S6        29.92F
$$

WIZ013-073-242000-
NORTHEAST WISCONSIN

CITY           SKY/WX    TMP DP  RH WIND       PRES   REMARKS
IRON MOUNTAIN  MOSUNNY   57  48  72 SE6       29.88F
MARINETTE      CLOUDY    50  46  87 W7        29.92F
OCONTO         CLOUDY    53  49  86 SW7       29.93F
$$

WIZ017-030-035>037-045-242000-
CENTRAL WISCONSIN

CITY           SKY/WX    TMP DP  RH WIND       PRES   REMARKS
MEDFORD        MOSUNNY   52  49  89 S8        29.90F
WAUSAU         PTSUNNY   51  48  89 S7        29.92F
MOSINEE        CLOUDY    50  50 100 S8        29.94F FOG
MARSHFIELD     MOSUNNY   55  49  80 SE6       29.92F
WISC RAPIDS      N/A     56  50  80 S5        29.94F
STEVENS POINT  PTSUNNY   50  47  89 S6        29.94F
WAUPACA        CLOUDY    54  51  89 S7        29.95F
SHAWANO        CLOUDY    52  49  89 SW6       29.95F
CLINTONVILLE   CLOUDY    50  48  93 SW10      29.94F
$$

WIZ038-039-048-051-242000-
FOX VALLEY

CITY           SKY/WX    TMP DP  RH WIND       PRES   REMARKS
NWS GREEN BAY  CLOUDY    52  49  89 SW5       29.94F FOG
APPLETON         N/A     50  48  93 SW8       29.96F FOG
OSHKOSH        CLOUDY    52  50  93 SW8       29.96F
FOND DU LAC    CLOUDY    52  49  89 SW10      29.97F
$$

WIZ022-050-052-242000-
EAST CENTRAL WISCONSIN

CITY           SKY/WX    TMP DP  RH WIND       PRES   REMARKS
STURGEON BAY   PTSUNNY   54  48  82 SW5       29.94F
MANITOWOC      MOSUNNY   59  51  75 S7        29.95F
SHEBOYGAN      MOSUNNY   60  49  66 SW6       29.95F
$$

LMZ563-521-522-541>543-242000-
LAKESHORE

STATION/POSITION TIME  TEMP    WIND        PRES    VSBY  WAVE
                       AIR SEA DIR/SP/G                  HT/PER
                 (UTC) (F)     (DEG/KT/KT) (MB)    (MI)  (FT/S)
SHEBOYGAN LKSHOR 1900   50 51  160/ 15/ 16 1014.6F
KEWAUNEE LKSHORE 1900   52     160/ 10/ 11 1013.5F
NORTHPORT PIER   1900   52     210/  4/  8 1013.5F
N MID LAKE BUOY  1900   50 51  220/ 12/ 16 1014.0F         1/ 5
SISTER BAY LKSHO 1900          220/ 10/ 13   N/A
STURGEON BAY CG  1800   51 50  180/  4     1015.8      6   1
CHAMBERS ISLAND  1900   49     190/  6/ 10 1013.9F
MENOMINEE LKSHOR 1900   49     210/  7/ 10 1014.3F
$$




U.S. Dept. of Commerce
NOAA National Weather Service
1325 East West Highway
Silver Spring, MD 20910
E-mail: w-nws.webmaster@noaa.gov
Page last modified: May 16, 2007
NATIONAL WEATHER SERVICE: for Safety, for Work, for Fun - FOR LIFE